Mitchell, SD

11:10 AM CST on December 12, 2019 (GMT -0600)
Mitchell Municipal

Weather History for KMHE - May, 2019

Change the Weather History Date:

Monday, May 13, 2019

  Actual Average Record
Temperature  
Mean Temperature 60 °F 59 °F  
Max Temperature 73 °F 70 °F 94 °F (1894)
Min Temperature 46 °F 47 °F 26 °F (1943)
Degree Days  
Heating Degree Days 5 7  
Month to date heating degree days 183 117  
Since 1 July heating degree days 7871 7117  
Cooling Degree Days 0 1  
Month to date cooling degree days 0 10  
Year to date cooling degree days 0 12  
Growing Degree Days 10 (Base 50)    
Moisture  
Dew Point 49 °F    
Average Humidity 65    
Maximum Humidity 86    
Minimum Humidity 44    
Precipitation  
Precipitation 0.12 in 0.07 in 4.60 in (1908)
Month to date precipitation 1.76 1.01  
Year to date precipitation 9.34 4.81  
Snow  
Snow 0.00 in - 0.00 in ()
Month to date snowfall 0.0  
Since 1 July snowfall 67.6  
Snow Depth 0.00 in    
Sea Level Pressure  
Sea Level Pressure 29.84 in    
Wind  
Wind Speed 11 mph (SE)    
Max Wind Speed 24 mph    
Max Gust Speed 31 mph    
Visibility 9 miles    
Events Rain , Thunderstorm    
T = Trace of Precipitation, MM = Missing Value Source: NWS Daily Summary

Daily Weather History Graph

Daily Weather History Graph

Search for Another Location

Airport or City:

Astronomy

May. 13, 2019 Rise Set
Actual Time 6:09 AM CDT 8:48 PM CDT
Civil Twilight 5:36 AM CDT 9:21 PM CDT
Nautical Twilight 4:54 AM CDT 10:03 PM CDT
Astronomical Twilight 4:07 AM CDT 10:50 PM CDT
Moon 2:47 PM CDT (5/13) 3:43 AM CDT (5/13)
Length of Visible Light 15h 45m
Length of Day
14h 39m
Waxing Gibbous, 69% of the Moon is Illuminated
May 13
Waxing Gibbous
May 18
Full
May 26
Last Quarter
Jun 3
New
Jun 10
First Quarter

Hourly Weather History & Observations

Time (CDT) Temp. Windchill Dew Point Humidity Pressure Visibility Wind Dir Wind Speed Gust Speed Precip Events Conditions
12:53 AM 48.9 °F - 43.0 °F 80% 29.91 in 10.0 mi SSE 9.2 mph - N/A   Clear
1:53 AM 46.9 °F - 43.0 °F 86% 29.91 in 10.0 mi South 6.9 mph - N/A   Clear
2:53 AM 46.9 °F - 43.0 °F 86% 29.90 in 10.0 mi SSE 9.2 mph - N/A   Clear
3:53 AM 46.9 °F - 43.0 °F 86% 29.91 in 10.0 mi South 9.2 mph - N/A   Clear
4:53 AM 46.0 °F 41.0 °F 43.0 °F 89% 29.91 in 10.0 mi South 10.4 mph - N/A   Clear
5:53 AM 46.0 °F 41.0 °F 42.1 °F 86% 29.90 in 10.0 mi South 10.4 mph - N/A   Clear
6:53 AM 46.0 °F 41.0 °F 43.0 °F 89% 29.91 in 10.0 mi South 10.4 mph - N/A   Clear
7:53 AM 48.9 °F - 45.0 °F 86% 29.91 in 10.0 mi South 11.5 mph - N/A   Clear
8:53 AM 53.1 °F - 46.0 °F 77% 29.91 in 10.0 mi South 9.2 mph - N/A   Clear
9:53 AM 57.0 °F - 48.9 °F 74% 29.90 in 10.0 mi SSE 8.1 mph - N/A   Clear
10:53 AM 60.1 °F - 50.0 °F 69% 29.88 in 10.0 mi SSE 11.5 mph - N/A   Clear
11:53 AM 64.0 °F - 51.1 °F 63% 29.86 in 10.0 mi South 10.4 mph 21.9 mph N/A   Clear
12:53 PM 66.9 °F - 50.0 °F 54% 29.84 in 10.0 mi South 15.0 mph 21.9 mph N/A   Clear
1:53 PM 68.0 °F - 50.0 °F 52% 29.82 in 10.0 mi SSE 13.8 mph 25.3 mph N/A   Clear
2:53 PM 71.1 °F - 50.0 °F 47% 29.81 in 10.0 mi SSE 10.4 mph 23.0 mph N/A   Clear
3:53 PM 72.0 °F - 48.9 °F 44% 29.79 in 10.0 mi South 11.5 mph 20.7 mph N/A   Clear
4:53 PM 72.0 °F - 48.9 °F 44% 29.78 in 10.0 mi SSE 15.0 mph - N/A   Mostly Cloudy
5:53 PM 73.0 °F - 50.0 °F 44% 29.76 in 10.0 mi SSE 12.7 mph - N/A   Clear
6:53 PM 73.0 °F - 50.0 °F 44% 29.75 in 10.0 mi SE 12.7 mph - N/A   Clear
7:53 PM 69.1 °F - 50.0 °F 51% 29.74 in 10.0 mi SE 9.2 mph - N/A   Mostly Cloudy
8:53 PM 64.9 °F - 52.0 °F 63% 29.75 in 10.0 mi ESE 9.2 mph - N/A   Clear
9:53 PM 64.0 °F - 52.0 °F 65% 29.75 in 10.0 mi ESE 10.4 mph - N/A   Clear
10:41 PM 63.0 °F - 52.0 °F 67% 29.82 in 10.0 mi North 20.7 mph 31.1 mph 0.00 in Rain , Thunderstorm Light Rain
10:48 PM 64.4 °F - 51.8 °F 64% 29.83 in 10.0 mi NE 13.8 mph 31.1 mph 0.00 in Rain , Thunderstorm Light Thunderstorms and Rain
10:53 PM 64.0 °F - 52.0 °F 65% 29.84 in 10.0 mi NNE 12.7 mph 28.8 mph 0.00 in Rain , Thunderstorm Light Thunderstorms and Rain
11:09 PM 61.0 °F - 54.0 °F 78% 29.87 in 6.0 mi North 12.7 mph - 0.01 in Rain Light Rain
11:16 PM 60.1 °F - 54.0 °F 80% 29.87 in 3.0 mi NNE 11.5 mph - 0.07 in Rain , Thunderstorm Heavy Rain
11:31 PM 59.0 °F - 55.0 °F 87% 29.84 in 5.0 mi ENE 13.8 mph - 0.10 in Rain Rain
11:53 PM 59.0 °F - 55.0 °F 87% 29.81 in 10.0 mi East 11.5 mph - 0.12 in Rain Light Rain